Regional Weather Roundup
Issued by NWS Albany, NY

Home | Current Version | Previous Version | Text Only | Print | Product List | Glossary On
Versions: 1 2 3 4 5 6 7 8 9 10 11 12 13 14 15 16 17 18 19 20 21 22 23 24 25 26 27 28 29 30 31 32 33 34 35 36 37 38 39 40 41 42 43 44 45 46 47 48 49 50
000
ASUS41 KALY 271210
RWRALY

NEW YORK STATE HOURLY WEATHER ROUNDUP
NATIONAL WEATHER SERVICE ALBANY NY
800 AM EDT MON JUL 27 2015

NOTE: "FAIR" INDICATES FEW OR NO CLOUDS BELOW 12,000 FEET WITH NO
SIGNIFICANT WEATHER AND/OR NO OBSTRUCTIONS TO VISIBILITY.

NYZ032-033-038>043-046>054-057>066-NYZ062>081-271300-
EAST


CITY           SKY/WX    TMP DP  RH WIND       PRES   REMARKS
ALBANY         PTSUNNY   72  65  78 CALM      30.02R
GLENS FALLS    CLOUDY    69  66  90 CALM      30.01R FOG
POUGHKEEPSIE   CLOUDY    71  67  87 CALM      30.01R
NEWBURGH       PTSUNNY   70  68  94 CALM      30.04R
WHITE PLAINS   CLOUDY    72  68  87 S3        30.02R
ISLIP          CLOUDY    75  67  76 W5        30.01R
NEW YORK CITY  CLOUDY    76  64  66 SW9       30.00F
CENTRAL PARK   CLOUDY    73  68  84 VRB3      30.04S
$$

NYZ005>009-017-018-044>046-055-056-271300-
CENTRAL


CITY           SKY/WX    TMP DP  RH WIND       PRES   REMARKS
FULTON         FOG       66  65  96 S3        30.01S VSB 1/4
SYRACUSE       SUNNY     69  66  90 CALM      30.01R
ROME           SUNNY     65  62  90 E5        30.03R
ELMIRA         FOG       65  65 100 SW3       30.03S VSB 1/4
BINGHAMTON     MOSUNNY   66  63  90 CALM      30.06R FOG
MONTICELLO     CLOUDY    64  64 100 S6        30.07R
$$

NYZ026>034-041>043-271300-
NORTH


CITY           SKY/WX    TMP DP  RH WIND       PRES   REMARKS
WATERTOWN      SUNNY     69  64  84 W6        30.00R
FORT DRUM      NOT AVBL
MASSENA        MOSUNNY   70  65  84 SW5       29.98S
SARANAC LAKE   FOG       62  62 100 S3        30.04R VSB<1/4
PLATTSBURGH    SUNNY     69  65  86 S5        29.99R
$$

NYZ001>004-010>016-019>021-271300-
WEST


CITY           SKY/WX    TMP DP  RH WIND       PRES   REMARKS
NIAGARA FALLS  MOSUNNY   68  68 100 CALM      30.02R
BUFFALO        SUNNY     68  62  81 S5        30.03R
DUNKIRK        SUNNY     67  62  84 CALM      30.03R
JAMESTOWN      SUNNY     64  59  82 NE5       30.08R
WELLSVILLE     FOG       63  62  97 CALM      30.10R VSB<1/4
ROCHESTER      SUNNY     67  64  90 SW7       30.03R
PENN YAN       FOG       66  66 100 SW6       30.04S VSB 1/4
$$

             KEY
       WCI = WIND CHILL INDEX
       VSB = VISIBILITY
       HX  = HEAT INDEX
$$


USA.gov is the U.S. government's official web portal to all federal, state and local government web resources and services.